Weather History for Staunton, VA

Change the Weather History Date:

Wednesday, December 5, 2012

  Actual Average Record
Temperature  
Mean Temperature 49 °F -  
Max Temperature 62 °F 49 °F 80 °F (2001)
Min Temperature 35 °F 29 °F 19 °F (2002)
Degree Days  
Heating Degree Days 16    
Moisture  
Dew Point 33 °F    
Average Humidity 49    
Maximum Humidity 79    
Minimum Humidity 19    
Precipitation  
Precipitation 0.00 in - - ()
Sea Level Pressure  
Sea Level Pressure 30.17 in    
Wind  
Wind Speed 6 mph (NNW)    
Max Wind Speed 13 mph    
Max Gust Speed 17 mph    
Visibility 10 miles    
Events Rain    
Averages and records for this station are not official NWS values.
T = Trace of Precipitation, MM = Missing Value Source: NWS Daily Summary

Daily Weather History Graph

Daily Weather History Graph

Search for Another Location

Airport:

Trip Planner

Search our weather history database for the weather conditions in past years. The results will help you decide how hot, cold, wet, or windy it might be!

Date:

Astronomy

Dec. 05, 2012 Rise Set
Actual Time 7:17 AM EST 4:55 PM EST
Civil Twilight 6:48 AM EST 5:24 PM EST
Nautical Twilight 6:15 AM EST 5:57 PM EST
Astronomical Twilight 5:43 AM EST 6:29 PM EST
Moon 11:38 PM EST (12/5) 11:44 AM EST (12/5)
Length of Visible Light 10h 36m
Length of Day
9h 37m
Waning Gibbous, 60% of the Moon is Illuminated
Dec 5
Waning Gibbous
Dec 6
Last Quarter
Dec 13
New
Dec 20
First Quarter
Dec 28
Full

Hourly Weather History & Observations

Time (EST) Temp. Windchill Dew Point Humidity Pressure Visibility Wind Dir Wind Speed Gust Speed Precip Events Conditions
12:15 AM 63.5 °F - 45.9 °F 53% 30.08 in 10.0 mi SSW 9.2 mph - N/A   Clear
12:35 AM 62.8 °F - 46.0 °F 54% 30.07 in 10.0 mi SSW 11.5 mph - N/A   Scattered Clouds
12:55 AM 63.0 °F - 45.9 °F 54% 30.07 in 10.0 mi SSW 9.2 mph - N/A   Mostly Cloudy
1:15 AM 62.1 °F - 46.0 °F 56% 30.07 in 10.0 mi SSW 8.1 mph - N/A   Scattered Clouds
1:35 AM 61.7 °F - 46.4 °F 57% 30.06 in 10.0 mi SSW 8.1 mph - N/A   Clear
1:55 AM 60.8 °F - 46.0 °F 58% 30.06 in 10.0 mi South 4.6 mph - N/A   Clear
2:15 AM 59.7 °F - 46.4 °F 61% 30.07 in 10.0 mi South 5.8 mph - N/A   Clear
2:35 AM 59.4 °F - 46.4 °F 62% 30.07 in 10.0 mi South 4.6 mph - N/A   Scattered Clouds
2:55 AM 59.2 °F - 46.6 °F 63% 30.07 in 10.0 mi South 4.6 mph - N/A   Mostly Cloudy
3:15 AM 58.3 °F - 46.4 °F 65% 30.07 in 10.0 mi South 4.6 mph - N/A   Mostly Cloudy
3:35 AM 59.4 °F - 46.6 °F 63% 30.07 in 10.0 mi South 3.5 mph - N/A   Mostly Cloudy
3:55 AM 59.0 °F - 46.9 °F 64% 30.07 in 10.0 mi South 3.5 mph - N/A   Overcast
4:15 AM 59.5 °F - 47.3 °F 64% 30.08 in 10.0 mi North 3.5 mph - N/A   Overcast
4:35 AM 59.5 °F - 47.7 °F 65% 30.08 in 10.0 mi North 3.5 mph - N/A   Overcast
4:55 AM 59.5 °F - 48.2 °F 66% 30.09 in 10.0 mi North 6.9 mph - N/A   Overcast
5:15 AM 58.6 °F - 49.3 °F 71% 30.09 in 10.0 mi North 11.5 mph - N/A   Overcast
5:35 AM 57.6 °F - 48.2 °F 71% 30.11 in 10.0 mi NNE 10.4 mph - N/A Rain Light Rain
5:55 AM 55.6 °F - 47.7 °F 75% 30.12 in 10.0 mi NNE 6.9 mph - N/A   Drizzle
6:15 AM 54.0 °F - 47.5 °F 79% 30.13 in 10.0 mi NE 4.6 mph - N/A   Overcast
6:35 AM 54.7 °F - 46.8 °F 75% 30.14 in 10.0 mi East 4.6 mph - N/A   Overcast
6:55 AM 54.5 °F - 46.2 °F 74% 30.16 in 10.0 mi Calm Calm - N/A   Overcast
7:15 AM 55.0 °F - 45.9 °F 71% 30.17 in 10.0 mi North 3.5 mph - N/A   Overcast
7:35 AM 54.5 °F - 43.2 °F 66% 30.18 in 10.0 mi North 3.5 mph - N/A   Overcast
7:55 AM 54.1 °F - 37.6 °F 54% 30.18 in 10.0 mi North 5.8 mph - N/A   Overcast
9:35 AM 53.6 °F - 33.3 °F 46% 30.21 in 10.0 mi NNE 3.5 mph - N/A   Clear
9:55 AM 53.8 °F - 33.6 °F 46% 30.21 in 10.0 mi North 3.5 mph - N/A   Clear
10:15 AM 54.0 °F - 33.1 °F 45% 30.21 in 10.0 mi Calm Calm - N/A   Clear
10:35 AM 54.1 °F - 32.0 °F 43% 30.22 in 10.0 mi Calm Calm - N/A   Clear
10:55 AM 54.3 °F - 32.0 °F 43% 30.22 in 10.0 mi Calm Calm - N/A   Clear
11:15 AM 54.1 °F - 30.7 °F 41% 30.22 in 10.0 mi West 6.9 mph - N/A   Clear
11:35 AM 54.9 °F - 26.8 °F 34% 30.21 in 10.0 mi West 3.5 mph - N/A   Clear
11:55 AM 56.8 °F - 26.2 °F 31% 30.20 in 10.0 mi WSW 5.8 mph - N/A   Clear
12:15 PM 56.7 °F - 27.0 °F 32% 30.19 in 10.0 mi WSW 6.9 mph - N/A   Clear
12:35 PM 57.7 °F - 26.4 °F 30% 30.18 in 10.0 mi Calm Calm - N/A   Clear
12:55 PM 59.4 °F - 25.2 °F 27% 30.17 in 10.0 mi West 8.1 mph - N/A   Clear
1:15 PM 60.1 °F - 23.9 °F 25% 30.17 in 10.0 mi Calm Calm - N/A   Clear
1:35 PM 60.4 °F - 23.4 °F 24% 30.16 in 10.0 mi NW 8.1 mph - N/A   Clear
1:55 PM 60.8 °F - 22.1 °F 23% 30.16 in 10.0 mi NW 6.9 mph - N/A   Clear
2:15 PM 61.3 °F - 21.9 °F 22% 30.16 in 10.0 mi NNW 9.2 mph - N/A   Clear
2:35 PM 61.0 °F - 19.2 °F 20% 30.15 in 10.0 mi NW 12.7 mph 17.3 mph N/A   Clear
2:55 PM 61.0 °F - 18.7 °F 19% 30.15 in 10.0 mi NW 12.7 mph - N/A   Clear
3:15 PM 61.0 °F - 19.0 °F 20% 30.16 in 10.0 mi WNW 11.5 mph 16.1 mph N/A   Clear
3:35 PM 59.9 °F - 19.2 °F 21% 30.16 in 10.0 mi NW 9.2 mph - N/A   Clear
3:55 PM 59.5 °F - 19.2 °F 21% 30.16 in 10.0 mi NW 8.1 mph - N/A   Clear
4:15 PM 58.1 °F - 20.7 °F 23% 30.17 in 10.0 mi NW 5.8 mph - N/A   Clear
4:35 PM 56.5 °F - 21.7 °F 26% 30.17 in 10.0 mi NW 4.6 mph - N/A   Clear
4:55 PM 54.9 °F - 21.0 °F 27% 30.17 in 10.0 mi North 5.8 mph - N/A   Clear
5:15 PM 53.6 °F - 20.3 °F 27% 30.19 in 10.0 mi North 4.6 mph - N/A   Clear
5:35 PM 52.5 °F - 21.2 °F 29% 30.20 in 10.0 mi North 8.1 mph - N/A   Clear
5:55 PM 50.5 °F - 22.1 °F 33% 30.20 in 10.0 mi NNW 8.1 mph - N/A   Clear
6:15 PM 48.2 °F - 22.5 °F 36% 30.22 in 10.0 mi East 4.6 mph - N/A   Clear
6:35 PM 48.4 °F - 22.1 °F 36% 30.23 in 10.0 mi NNE 4.6 mph - N/A   Clear
6:55 PM 46.4 °F 45.2 °F 23.9 °F 41% 30.23 in 10.0 mi NNE 3.5 mph - N/A   Clear
7:15 PM 48.2 °F - 24.8 °F 40% 30.23 in 10.0 mi North 6.9 mph - N/A   Clear
7:35 PM 48.2 °F - 25.9 °F 42% 30.23 in 10.0 mi North 10.4 mph - N/A   Clear
7:55 PM 45.3 °F - 27.0 °F 49% 30.24 in 10.0 mi Calm Calm - N/A   Clear
8:15 PM 43.0 °F 41.3 °F 27.0 °F 53% 30.25 in 10.0 mi ENE 3.5 mph - N/A   Clear
8:35 PM 44.6 °F 43.1 °F 27.3 °F 51% 30.26 in 10.0 mi North 3.5 mph - N/A   Clear
8:55 PM 41.2 °F 38.2 °F 27.3 °F 58% 30.27 in 10.0 mi East 4.6 mph - N/A   Clear
9:15 PM 38.8 °F - 27.1 °F 63% 30.26 in 10.0 mi Calm Calm - N/A   Clear
9:35 PM 39.9 °F 37.8 °F 28.2 °F 63% 30.27 in 10.0 mi NNW 3.5 mph - N/A   Clear
9:55 PM 42.3 °F 39.4 °F 28.8 °F 59% 30.27 in 10.0 mi North 4.6 mph - N/A   Clear
10:15 PM 41.5 °F 37.1 °F 29.7 °F 63% 30.27 in 10.0 mi NNW 6.9 mph - N/A   Clear
10:35 PM 38.8 °F - 29.1 °F 68% 30.27 in 10.0 mi Calm Calm - N/A   Clear
10:55 PM 40.5 °F 38.4 °F 30.2 °F 67% 30.26 in 10.0 mi North 3.5 mph - N/A   Clear
11:15 PM 38.7 °F - 29.1 °F 69% 30.27 in 10.0 mi Calm Calm - N/A   Clear
11:35 PM 35.4 °F - 28.2 °F 75% 30.28 in 10.0 mi Calm Calm - N/A   Clear
11:55 PM 35.4 °F - 29.1 °F 78% 30.29 in 10.0 mi Calm Calm - N/A   Clear